Location: Eaton Estates
(41.3089°N, 82.0057°W)
Time: 02:16:44
(UTC+00:00)

BEESAT 2 - Pass Details

Date: 09 April 2023
Orbit: 429 x 466 km, 64.9° (Epoch: 07 June)

Event Time Altitude Azimuth Distance (km) Brightness Sun altitude
Exits shadow 08:29:10 35° 29° (NNE) 784 ? -26.2°
Drops below altitude 10° 08:31:24 10° 32° (NNE) 1,649 ? -25.9°
Enters shadow 09:27:30 -68° 215° (SW) 12,293 ? -17.0°
